Location: Paddlesworth
(51.1000°N, 1.1333°E)
Time: 09:13:43
(UTC+00:00)

Cosmos 1378 - Pass Details

Date: 11 May 2021
Orbit: 491 x 499 km, 82.5° (Epoch: 15 June)

Event Time Altitude Azimuth Distance (km) Brightness Sun altitude
Exits shadow 23:34:56 40° 98° (E) 741 3.8 -20.7°
Maximum altitude 23:35:02 40° 94° (E) 740 3.8 -20.7°
Drops below altitude 10° 23:38:32 10° 24° (NNE) 1,706 6.7 -20.7°
Sets 23:40:44 0° 17° (NNE) 2,596 8.0 -20.7°
